This is the latest recevied weather packets stored in our database for station/object KD8UYA. If no packets are shown the sender has not sent any weather packets the latest 10 day(s).
| Time | Temp. | Humidity | Pressure | Rain* | Wind** | Luminosity | Snow |
|---|---|---|---|---|---|---|---|
| 1777686344 | 3.89° C | 93% | 1014.4 hPa | 0 mm | - | - | - |
| 1777685447 | 3.89° C | 92% | 1014.4 hPa | 0 mm | - | - | - |
| 1777684548 | 4.44° C | 92% | 1014.3 hPa | 0 mm | - | - | - |
| 1777683642 | 4.44° C | 90% | 1014.3 hPa | 0 mm | - | - | - |
| 1777682738 | 4.44° C | 88% | 1014 hPa | 0 mm | - | - | - |
| 1777681836 | 5° C | 87% | 1013.7 hPa | 0 mm | - | - | - |
| 1777680933 | 5° C | 84% | 1013.4 hPa | 0 mm | - | - | - |
| 1777680033 | 5.56° C | 83% | 1013.3 hPa | 0 mm | - | - | - |
| 1777679145 | 5.56° C | 82% | 1013.2 hPa | 0 mm | - | - | - |
| 1777678231 | 5.56° C | 83% | 1013.1 hPa | 0 mm | - | - | - |
| 1777677346 | 5.56° C | 83% | 1013.1 hPa | 0 mm | - | - | - |
| 1777676435 | 5.56° C | 82% | 1013.1 hPa | 0 mm | - | - | - |
| 1777675530 | 6.11° C | 81% | 1013 hPa | 0 mm | - | - | - |
| 1777674629 | 6.11° C | 85% | 1012.7 hPa | 0 mm | - | - | - |
| 1777673731 | 5.56° C | 85% | 1012.6 hPa | 0 mm | - | - | - |
| 1777672828 | 5.56° C | 87% | 1012.7 hPa | 0 mm | - | - | - |
| 1777671941 | 5° C | 89% | 1012.5 hPa | 0 mm | - | - | - |
| 1777671027 | 5° C | 89% | 1012.5 hPa | 0 mm | - | - | - |
| 1777670126 | 5° C | 91% | 1012.3 hPa | 0 mm | - | - | - |
| 1777669226 | 4.44° C | 93% | 1012.2 hPa | 0 mm | - | - | - |
| 1777668327 | 4.44° C | 95% | 1012 hPa | 0 mm | - | - | - |
| 1777667424 | 3.89° C | 95% | 1012 hPa | 0.25 mm | - | - | - |
| 1777666525 | 3.89° C | 95% | 1011.9 hPa | 0.25 mm | - | - | - |
| 1777665622 | 3.89° C | 95% | 1011.9 hPa | 0.25 mm | - | - | - |
| 1777664721 | 3.89° C | 95% | 1011.7 hPa | 0.76 mm | - | - | - |
* Rain latest hour (hover to see other rain measurements)
** Current wind speed in m/s (hover to see current wind gust speed)